When you browse on this site, cookies collect data to enhance your experience and personalize the content and advertising you see.
Visit our Privacy Policy to learn more. By continuing to use the site, you agree to this use of cookies and data.
  • In Lithuania
  • List of Countries
  • For 7 days
  • Water Temperature
  • Satellite Maps
  • Weather Map
  • Weather Widgets
  • user-avatar
    Login

    Hourly Weather Konstantyna

    Today, 24 May, Friday

    Time Temperature Precipitation Wind Pressure Humidity
    00:00 +16°C° 0 mm 1 mps 709 mmHg 63%
    01:00 +16°C° 0 mm 1 mps 709 mmHg 61%
    02:00 +16°C° 0 mm 1 mps 709 mmHg 59%
    03:00 +18°C° 0 mm 1 mps 709 mmHg 57%
    04:00 +18°C° 0.2 mm 1 mps 709 mmHg 57%
    05:00 +19°C° 0.2 mm 1 mps 709 mmHg 57%
    06:00 +20°C° 0.2 mm 1 mps 709 mmHg 58%
    07:00 +21°C° 0.4 mm 1 mps 709 mmHg 55%
    08:00 +23°C° 0.4 mm 1 mps 709 mmHg 52%
    09:00 +24°C° 0.4 mm 1 mps 709 mmHg 49%
    10:00 +25°C° 0.2 mm 1 mps 709 mmHg 47%
    11:00 +26°C° 0.2 mm 1 mps 709 mmHg 44%
    12:00 +28°C° 0.2 mm 1 mps 709 mmHg 41%
    13:00 +28°C° 0 mm 1 mps 708 mmHg 43%
    14:00 +27°C° 0 mm 2 mps 707 mmHg 44%
    15:00 +27°C° 0 mm 2 mps 707 mmHg 46%
    16:00 +26°C° 0.1 mm 3 mps 707 mmHg 55%
    17:00 +24°C° 0.1 mm 3 mps 706 mmHg 65%
    18:00 +21°C° 0.1 mm 3 mps 706 mmHg 74%
    19:00 +20°C° 0.4 mm 3 mps 706 mmHg 80%
    20:00 +19°C° 0.4 mm 2 mps 706 mmHg 87%
    21:00 +17°C° 0.4 mm 2 mps 706 mmHg 93%
    22:00 +18°C° 0.5 mm 1 mps 706 mmHg 93%
    23:00 +18°C° 0.5 mm 1 mps 705 mmHg 94%

    Tomorrow, 25 May, Saturday

    Time Temperature Precipitation Wind Pressure Humidity
    00:00 +18°C° 0.5 mm 1 mps 705 mmHg 94%
    01:00 +18°C° 1.1 mm 1 mps 705 mmHg 94%
    02:00 +18°C° 1.1 mm 1 mps 705 mmHg 93%
    03:00 +18°C° 1.1 mm 1 mps 705 mmHg 92%
    04:00 +18°C° 3 mm 1 mps 705 mmHg 93%
    05:00 +18°C° 3 mm 1 mps 705 mmHg 93%
    06:00 +17°C° 3 mm 2 mps 705 mmHg 94%
    07:00 +18°C° 2.6 mm 1 mps 705 mmHg 91%
    08:00 +18°C° 2.6 mm 1 mps 706 mmHg 88%
    09:00 +16°C° 2.6 mm 0 mps 706 mmHg 85%
    10:00 +18°C° 0.9 mm 1 mps 706 mmHg 84%
    11:00 +18°C° 0.9 mm 1 mps 706 mmHg 83%
    12:00 +18°C° 0.9 mm 1 mps 706 mmHg 82%
    13:00 +17°C° 0.6 mm 2 mps 706 mmHg 82%
    14:00 +17°C° 0.6 mm 2 mps 706 mmHg 82%
    15:00 +17°C° 0.6 mm 3 mps 705 mmHg 83%
    16:00 +17°C° 0.3 mm 3 mps 705 mmHg 84%
    17:00 +16°C° 0.3 mm 3 mps 705 mmHg 85%
    18:00 +14°C° 0.3 mm 3 mps 705 mmHg 87%
    19:00 +15°C° 0 mm 2 mps 706 mmHg 89%
    20:00 +14°C° 0 mm 2 mps 706 mmHg 91%
    21:00 +14°C° 0 mm 1 mps 707 mmHg 93%
    22:00 +13°C° 0 mm 1 mps 706 mmHg 94%
    23:00 +13°C° 0 mm 1 mps 706 mmHg 95%

    Day after tomorrow, 26 May, Sunday

    Time Temperature Precipitation Wind Pressure Humidity
    00:00 +12°C° 0 mm 1 mps 705 mmHg 96%
    01:00 +12°C° 0 mm 1 mps 705 mmHg 96%
    02:00 +12°C° 0 mm 1 mps 705 mmHg 96%
    03:00 +12°C° 0 mm 1 mps 705 mmHg 96%
    04:00 +12°C° 0 mm 1 mps 705 mmHg 94%
    05:00 +13°C° 0 mm 2 mps 705 mmHg 91%
    06:00 +13°C° 0 mm 2 mps 706 mmHg 89%
    07:00 +13°C° 0 mm 3 mps 706 mmHg 82%
    08:00 +15°C° 0 mm 4 mps 706 mmHg 75%
    09:00 +16°C° 0 mm 5 mps 706 mmHg 69%
    10:00 +16°C° 0.1 mm 5 mps 706 mmHg 69%
    11:00 +16°C° 0.1 mm 5 mps 706 mmHg 69%
    12:00 +16°C° 0.1 mm 6 mps 707 mmHg 69%
    13:00 +16°C° 0.3 mm 6 mps 706 mmHg 71%
    14:00 +16°C° 0.3 mm 6 mps 706 mmHg 73%
    15:00 +15°C° 0.3 mm 7 mps 706 mmHg 75%
    16:00 +15°C° 0.1 mm 6 mps 706 mmHg 78%
    17:00 +14°C° 0.1 mm 5 mps 706 mmHg 80%
    18:00 +13°C° 0.1 mm 4 mps 706 mmHg 83%
    19:00 +13°C° 0.1 mm 4 mps 706 mmHg 85%
    20:00 +13°C° 0.1 mm 3 mps 707 mmHg 86%
    21:00 +13°C° 0.1 mm 3 mps 707 mmHg 88%
    22:00 +12°C° 0.1 mm 3 mps 707 mmHg 89%
    23:00 +12°C° 0.1 mm 3 mps 707 mmHg 91%

    27 May, Monday

    Time Temperature Precipitation Wind Pressure Humidity
    00:00 +12°C° 0.1 mm 2 mps 706 mmHg 92%
    01:00 +12°C° 0.1 mm 3 mps 706 mmHg 92%
    02:00 +12°C° 0.1 mm 3 mps 706 mmHg 91%
    03:00 +12°C° 0.1 mm 3 mps 706 mmHg 90%
    04:00 +12°C° 0.1 mm 3 mps 706 mmHg 89%
    05:00 +13°C° 0.1 mm 3 mps 706 mmHg 88%
    06:00 +13°C° 0.1 mm 4 mps 706 mmHg 86%
    07:00 +13°C° 0.1 mm 4 mps 707 mmHg 83%
    08:00 +14°C° 0.1 mm 4 mps 707 mmHg 80%
    09:00 +15°C° 0.1 mm 4 mps 707 mmHg 77%
    10:00 +17°C° 0.1 mm 4 mps 707 mmHg 73%
    11:00 +17°C° 0.1 mm 5 mps 708 mmHg 69%
    12:00 +19°C° 0.1 mm 5 mps 708 mmHg 65%
    13:00 +19°C° 0.1 mm 6 mps 708 mmHg 64%
    14:00 +19°C° 0.1 mm 6 mps 707 mmHg 63%
    15:00 +19°C° 0.1 mm 6 mps 707 mmHg 61%
    16:00 +17°C° 0 mm 5 mps 707 mmHg 64%
    17:00 +18°C° 0 mm 4 mps 707 mmHg 66%
    18:00 +17°C° 0 mm 3 mps 707 mmHg 69%
    19:00 +16°C° 0 mm 3 mps 708 mmHg 72%
    20:00 +15°C° 0 mm 2 mps 708 mmHg 75%
    21:00 +13°C° 0 mm 1 mps 708 mmHg 78%
    22:00 +13°C° 0 mm 2 mps 708 mmHg 78%
    23:00 +13°C° 0 mm 2 mps 708 mmHg 78%

    28 May, Tuesday

    Time Temperature Precipitation Wind Pressure Humidity
    00:00 +13°C° 0 mm 2 mps 708 mmHg 79%
    01:00 +13°C° 0 mm 2 mps 708 mmHg 79%
    02:00 +13°C° 0 mm 1 mps 707 mmHg 80%
    03:00 +12°C° 0 mm 1 mps 707 mmHg 81%
    04:00 +13°C° 0 mm 1 mps 707 mmHg 77%
    05:00 +15°C° 0 mm 1 mps 708 mmHg 73%
    06:00 +16°C° 0 mm 1 mps 708 mmHg 68%
    07:00 +18°C° 0 mm 2 mps 709 mmHg 60%
    08:00 +19°C° 0 mm 2 mps 709 mmHg 52%
    09:00 +21°C° 0 mm 2 mps 709 mmHg 44%
    10:00 +24°C° 0 mm 2 mps 709 mmHg 39%
    11:00 +25°C° 0 mm 3 mps 709 mmHg 33%
    12:00 +27°C° 0 mm 3 mps 709 mmHg 28%
    13:00 +27°C° 0 mm 3 mps 709 mmHg 28%
    14:00 +28°C° 0 mm 3 mps 709 mmHg 28%
    15:00 +28°C° 0 mm 3 mps 708 mmHg 28%
    16:00 +27°C° 0 mm 3 mps 708 mmHg 37%
    17:00 +25°C° 0 mm 2 mps 708 mmHg 45%
    18:00 +24°C° 0 mm 1 mps 707 mmHg 54%
    19:00 +22°C° 0 mm 1 mps 707 mmHg 56%
    20:00 +21°C° 0 mm 1 mps 707 mmHg 59%
    21:00 +19°C° 0 mm 1 mps 707 mmHg 61%
    22:00 +19°C° 0 mm 1 mps 707 mmHg 59%
    23:00 +19°C° 0 mm 1 mps 707 mmHg 56%

    29 May, Wednesday

    Time Temperature Precipitation Wind Pressure Humidity
    00:00 +19°C° 0 mm 1 mps 706 mmHg 54%
    01:00 +19°C° 0 mm 1 mps 706 mmHg 52%
    02:00 +19°C° 0 mm 1 mps 706 mmHg 51%
    03:00 +19°C° 0 mm 1 mps 706 mmHg 50%
    04:00 +20°C° 0 mm 1 mps 706 mmHg 50%
    05:00 +21°C° 0 mm 1 mps 707 mmHg 51%
    06:00 +22°C° 0 mm 1 mps 707 mmHg 51%
    07:00 +24°C° 0 mm 2 mps 708 mmHg 47%
    08:00 +25°C° 0 mm 3 mps 709 mmHg 44%
    09:00 +27°C° 0 mm 4 mps 710 mmHg 40%
    10:00 +25°C° 0 mm 5 mps 710 mmHg 51%
    11:00 +22°C° 0 mm 5 mps 710 mmHg 63%
    12:00 +21°C° 0 mm 5 mps 710 mmHg 74%
    13:00 +20°C° 0 mm 5 mps 710 mmHg 73%
    14:00 +20°C° 0 mm 4 mps 710 mmHg 72%
    15:00 +19°C° 0 mm 4 mps 710 mmHg 72%
    16:00 +18°C° 0.1 mm 4 mps 710 mmHg 75%
    17:00 +18°C° 0.1 mm 4 mps 711 mmHg 79%
    18:00 +17°C° 0.1 mm 3 mps 711 mmHg 83%
    19:00 +17°C° 0.1 mm 3 mps 712 mmHg 85%
    20:00 +16°C° 0.1 mm 3 mps 712 mmHg 87%
    21:00 +14°C° 0.1 mm 3 mps 713 mmHg 90%
    22:00 +14°C° 0.1 mm 3 mps 713 mmHg 90%
    23:00 +15°C° 0.1 mm 2 mps 713 mmHg 91%
    Show more